User: anonymous
Location: Quebec
(46.8000°N, 71.2500°W)
Time: 22:20:46
(UTC-04:00)
Language:

CZ-4B R/B - Orbit

View from above orbital plane
View from above orbital plane
View from above satellite
View from above satellite

Ground track
Ground track

The orbit data is extracted from the following two-line orbital elements,

1 29093U 06015B   14244.80387729  .00005495  00000-0  19907-3 0  3798
2 29093 097.5170 324.5912 0089217 352.7769 119.7923 15.25067067461255
Epoch (UTC): 01 September 2014 19:17:34
Eccentricity: 0.0089217
inclination: 97.5170°
perigee height: 429 km
apogee height: 552 km
right ascension of ascending node: 324.5912°
argument of perigee: 352.7769°
revolutions per day: 15.25067067
mean anomaly at epoch: 119.7923°
orbit number at epoch: 46125

The dashed part of the orbit path shows where the satellite is in the earth's shadow,  

DLR